This is the latest recevied weather packets stored in our database for station/object N1HRK. If no packets are shown the sender has not sent any weather packets the latest 10 day(s).
| Time | Temp. | Humidity | Pressure | Rain* | Wind** | Luminosity | Snow |
|---|---|---|---|---|---|---|---|
| 1777954923 | 11.11° C | 87% | 1011.8 hPa | 0 mm | - | - | - |
| 1777954323 | 11.11° C | 86% | 1011.8 hPa | 0 mm | - | - | - |
| 1777953724 | 11.11° C | 86% | 1011.9 hPa | 0 mm | - | - | - |
| 1777953123 | 11.67° C | 85% | 1011.8 hPa | 0 mm | - | - | - |
| 1777952524 | 11.67° C | 85% | 1011.9 hPa | 0 mm | - | - | - |
| 1777951923 | 11.67° C | 85% | 1011.8 hPa | 0 mm | - | - | - |
| 1777951324 | 11.67° C | 84% | 1011.7 hPa | 0 mm | - | - | - |
| 1777950724 | 11.67° C | 84% | 1011.9 hPa | 0 mm | - | - | - |
| 1777950123 | 11.67° C | 84% | 1011.9 hPa | 0 mm | - | - | - |
| 1777949523 | 11.67° C | 84% | 1011.9 hPa | 0 mm | - | - | - |
| 1777948924 | 11.67° C | 83% | 1011.9 hPa | 0 mm | - | - | - |
| 1777948323 | 11.67° C | 83% | 1011.9 hPa | 0 mm | - | - | - |
| 1777947723 | 11.67° C | 83% | 1011.9 hPa | 0 mm | - | - | - |
| 1777947123 | 11.67° C | 82% | 1012 hPa | 0 mm | - | - | - |
| 1777946523 | 11.67° C | 81% | 1012 hPa | 0 mm | - | - | - |
| 1777945923 | 12.22° C | 80% | 1012 hPa | 0 mm | - | - | - |
| 1777945322 | 11.67° C | 80% | 1012 hPa | 0 mm | - | - | - |
| 1777944722 | 12.22° C | 79% | 1011.9 hPa | 0 mm | - | - | - |
| 1777944123 | 12.22° C | 78% | 1011.8 hPa | 0 mm | - | - | - |
| 1777943554 | 12.78° C | 77% | 1011.6 hPa | 0 mm | - | - | - |
| 1777943523 | 12.78° C | 77% | 1011.6 hPa | 0 mm | - | - | - |
| 1777942923 | 12.78° C | 76% | 1011.5 hPa | 0 mm | - | - | - |
| 1777942323 | 12.78° C | 75% | 1011.1 hPa | 0 mm | - | - | - |
| 1777941723 | 12.22° C | 76% | 1010.8 hPa | 0 mm | - | - | - |
| 1777941124 | 12.78° C | 75% | 1010.6 hPa | 0 mm | - | - | - |
* Rain latest hour (hover to see other rain measurements)
** Current wind speed in m/s (hover to see current wind gust speed)